Time,TemperatureF,DewpointF,PressureIn,WindDirection,WindDirectionDegrees,WindSpeedMPH,WindSpeedGustMPH,Humidity,HourlyPrecipIn,Conditions,Clouds,dailyrainin,SolarRadiationWatts/m^2,SoftwareType,DateUTC
2013-05-13 00:01:00,42.1,33.4,30.10,South,191,0.0,0.0,71,0.00,,,0.00,0,Wunderground v.1.15,2013-05-13 05:01:00,
2013-05-13 00:11:00,42.0,33.6,30.10,SSW,197,0.0,0.0,72,0.00,,,0.00,0,Wunderground v.1.15,2013-05-13 05:11:00,
2013-05-13 00:16:00,41.9,33.5,30.10,SSW,195,0.0,0.0,72,0.00,,,0.00,0,Wunderground v.1.15,2013-05-13 05:16:00,
2013-05-13 00:21:00,41.8,33.4,30.10,SSW,197,0.0,0.0,72,0.00,,,0.00,0,Wunderground v.1.15,2013-05-13 05:21:00,
2013-05-13 00:26:00,41.7,33.3,30.10,SSW,200,0.0,0.0,72,0.00,,,0.00,0,Wunderground v.1.15,2013-05-13 05:26:00,
2013-05-13 00:31:00,41.6,33.6,30.10,SSW,195,0.0,0.0,73,0.00,,,0.00,0,Wunderground v.1.15,2013-05-13 05:31:00,
2013-05-13 00:36:00,41.6,33.6,30.10,SSW,195,1.0,1.0,73,0.00,,,0.00,0,Wunderground v.1.15,2013-05-13 05:36:00,
2013-05-13 00:46:00,41.5,33.1,30.10,SSW,197,0.0,1.0,72,0.00,,,0.00,0,Wunderground v.1.15,2013-05-13 05:46:00,
2013-05-13 00:51:00,41.4,33.0,30.11,North,359,0.0,0.0,72,0.00,,,0.00,0,Wunderground v.1.15,2013-05-13 05:51:00,
2013-05-13 01:01:00,41.0,32.7,30.10,SSW,197,0.0,0.0,72,0.00,,,0.00,0,Wunderground v.1.15,2013-05-13 06:01:00,
2013-05-13 01:06:00,40.9,32.9,30.11,SSW,195,0.0,0.0,73,0.00,,,0.00,0,Wunderground v.1.15,2013-05-13 06:06:00,
2013-05-13 01:16:00,40.5,32.9,30.11,SSW,199,0.0,0.0,74,0.00,,,0.00,0,Wunderground v.1.15,2013-05-13 06:16:00,
2013-05-13 01:21:00,40.2,32.6,30.11,SSW,196,0.0,0.0,74,0.00,,,0.00,0,Wunderground v.1.15,2013-05-13 06:21:00,
2013-05-13 01:26:00,39.9,32.9,30.11,NE,39,0.0,0.0,76,0.00,,,0.00,0,Wunderground v.1.15,2013-05-13 06:26:00,
2013-05-13 01:31:00,39.7,32.8,30.11,NE,43,0.0,0.0,76,0.00,,,0.00,0,Wunderground v.1.15,2013-05-13 06:31:00,
2013-05-13 01:41:00,39.2,32.9,30.11,NE,41,0.0,0.0,78,0.00,,,0.00,0,Wunderground v.1.15,2013-05-13 06:41:00,
2013-05-13 01:46:00,39.1,32.8,30.11,NE,39,0.0,0.0,78,0.00,,,0.00,0,Wunderground v.1.15,2013-05-13 06:46:00,
2013-05-13 01:51:00,38.9,32.6,30.11,NE,41,0.0,0.0,78,0.00,,,0.00,0,Wunderground v.1.15,2013-05-13 06:51:00,
2013-05-13 02:01:00,38.3,32.7,30.11,NE,40,0.0,0.0,80,0.00,,,0.00,0,Wunderground v.1.15,2013-05-13 07:01:00,
2013-05-13 02:06:00,38.1,32.5,30.11,NE,40,0.0,0.0,80,0.00,,,0.00,0,Wunderground v.1.15,2013-05-13 07:06:00,
2013-05-13 02:16:00,37.6,32.9,30.11,ENE,77,1.0,2.0,83,0.00,,,0.00,0,Wunderground v.1.15,2013-05-13 07:16:00,
2013-05-13 02:21:00,37.7,33.0,30.11,East,79,1.0,1.0,83,0.00,,,0.00,0,Wunderground v.1.15,2013-05-13 07:21:00,
2013-05-13 02:31:00,37.8,32.8,30.12,ENE,68,0.0,4.0,82,0.00,,,0.00,0,Wunderground v.1.15,2013-05-13 07:31:00,
2013-05-13 02:36:00,38.0,33.0,30.11,ENE,60,1.0,4.0,82,0.00,,,0.00,0,Wunderground v.1.15,2013-05-13 07:36:00,
2013-05-13 02:46:00,38.3,33.6,30.12,ENE,58,0.0,1.0,83,0.00,,,0.00,0,Wunderground v.1.15,2013-05-13 07:46:00,
2013-05-13 02:51:00,38.3,33.6,30.12,NE,54,0.0,0.0,83,0.00,,,0.00,0,Wunderground v.1.15,2013-05-13 07:51:00,
2013-05-13 03:01:00,38.4,33.7,30.12,NE,52,0.0,0.0,83,0.00,,,0.00,0,Wunderground v.1.15,2013-05-13 08:01:00,
2013-05-13 03:11:00,38.3,33.6,30.12,NE,52,0.0,0.0,83,0.00,,,0.00,0,Wunderground v.1.15,2013-05-13 08:11:00,
2013-05-13 03:21:00,38.3,33.6,30.12,NE,52,0.0,0.0,83,0.00,,,0.00,0,Wunderground v.1.15,2013-05-13 08:21:00,
2013-05-13 03:26:00,38.2,33.5,30.12,NE,52,0.0,0.0,83,0.00,,,0.00,0,Wunderground v.1.15,2013-05-13 08:26:00,
2013-05-13 03:36:00,37.9,33.5,30.12,NE,54,0.0,0.0,84,0.00,,,0.00,0,Wunderground v.1.15,2013-05-13 08:36:00,
2013-05-13 03:41:00,37.8,33.4,30.12,NE,51,0.0,0.0,84,0.00,,,0.00,0,Wunderground v.1.15,2013-05-13 08:41:00,
2013-05-13 03:51:00,37.7,33.0,30.12,NE,51,0.0,0.0,83,0.00,,,0.00,0,Wunderground v.1.15,2013-05-13 08:51:00,
2013-05-13 03:56:00,37.5,32.8,30.12,NE,49,0.0,0.0,83,0.00,,,0.00,0,Wunderground v.1.15,2013-05-13 08:56:00,
2013-05-13 04:01:00,37.5,33.1,30.12,NE,53,0.0,0.0,84,0.00,,,0.00,0,Wunderground v.1.15,2013-05-13 09:01:00,
2013-05-13 04:11:00,37.4,33.0,30.12,NE,52,0.0,0.0,84,0.00,,,0.00,0,Wunderground v.1.15,2013-05-13 09:11:00,
2013-05-13 04:21:00,37.6,33.2,30.12,NE,52,0.0,0.0,84,0.00,,,0.00,0,Wunderground v.1.15,2013-05-13 09:21:00,
2013-05-13 04:26:00,37.6,33.2,30.12,NE,55,0.0,0.0,84,0.00,,,0.00,0,Wunderground v.1.15,2013-05-13 09:26:00,
2013-05-13 04:31:00,37.4,33.0,30.12,NE,54,0.0,0.0,84,0.00,,,0.00,0,Wunderground v.1.15,2013-05-13 09:31:00,
2013-05-13 04:41:00,37.3,33.2,30.12,NE,52,0.0,0.0,85,0.00,,,0.00,0,Wunderground v.1.15,2013-05-13 09:41:00,
2013-05-13 04:46:00,37.2,33.4,30.11,NE,52,0.0,0.0,86,0.00,,,0.00,0,Wunderground v.1.15,2013-05-13 09:46:00,
2013-05-13 04:51:00,37.1,33.3,30.12,NE,52,0.0,0.0,86,0.00,,,0.00,0,Wunderground v.1.15,2013-05-13 09:51:00,
2013-05-13 05:01:00,36.8,33.3,30.12,NE,54,0.0,0.0,87,0.00,,,0.00,0,Wunderground v.1.15,2013-05-13 10:01:00,
2013-05-13 05:06:00,36.8,33.3,30.12,NE,52,0.0,0.0,87,0.00,,,0.00,0,Wunderground v.1.15,2013-05-13 10:06:00,
2013-05-13 05:16:00,36.8,33.3,30.12,NE,50,0.0,0.0,87,0.00,,,0.00,0,Wunderground v.1.15,2013-05-13 10:16:00,
2013-05-13 05:21:00,36.7,33.2,30.12,NE,53,0.0,0.0,87,0.00,,,0.00,0,Wunderground v.1.15,2013-05-13 10:21:00,
2013-05-13 05:31:00,36.3,32.5,30.12,NE,55,0.0,0.0,86,0.00,,,0.00,5,Wunderground v.1.15,2013-05-13 10:31:00,
2013-05-13 05:36:00,36.2,32.7,30.12,NE,50,0.0,0.0,87,0.00,,,0.00,7,Wunderground v.1.15,2013-05-13 10:36:00,
2013-05-13 05:46:00,35.9,32.4,30.13,NE,52,0.0,0.0,87,0.00,,,0.00,11,Wunderground v.1.15,2013-05-13 10:46:00,
2013-05-13 05:51:00,35.9,32.7,30.13,NE,54,0.0,0.0,88,0.00,,,0.00,14,Wunderground v.1.15,2013-05-13 10:51:00,
2013-05-13 05:56:00,36.0,32.5,30.13,NE,51,0.0,0.0,87,0.00,,,0.00,16,Wunderground v.1.15,2013-05-13 10:56:00,
2013-05-13 06:06:00,36.2,32.7,30.13,NE,50,0.0,0.0,87,0.00,,,0.00,23,Wunderground v.1.15,2013-05-13 11:06:00,
2013-05-13 06:11:00,36.4,32.9,30.14,NE,54,0.0,0.0,87,0.00,,,0.00,25,Wunderground v.1.15,2013-05-13 11:11:00,
2013-05-13 06:21:00,37.0,33.5,30.14,NE,54,0.0,0.0,87,0.00,,,0.00,28,Wunderground v.1.15,2013-05-13 11:21:00,
2013-05-13 06:26:00,37.4,33.6,30.14,NE,51,0.0,0.0,86,0.00,,,0.00,30,Wunderground v.1.15,2013-05-13 11:26:00,
2013-05-13 06:36:00,38.1,34.0,30.15,NE,54,0.0,0.0,85,0.00,,,0.00,35,Wunderground v.1.15,2013-05-13 11:36:00,
2013-05-13 06:41:00,38.6,34.2,30.15,NE,54,0.0,0.0,84,0.00,,,0.00,60,Wunderground v.1.15,2013-05-13 11:41:00,
2013-05-13 06:51:00,40.2,34.8,30.15,NE,52,0.0,0.0,81,0.00,,,0.00,174,Wunderground v.1.15,2013-05-13 11:51:00,
2013-05-13 06:56:00,41.2,35.2,30.15,NE,52,0.0,0.0,79,0.00,,,0.00,190,Wunderground v.1.15,2013-05-13 11:56:00,
2013-05-13 07:01:00,41.9,35.5,30.16,NE,54,0.0,0.0,78,0.00,,,0.00,207,Wunderground v.1.15,2013-05-13 12:01:00,
2013-05-13 07:11:00,43.1,35.7,30.16,NE,54,0.0,0.0,75,0.00,,,0.00,243,Wunderground v.1.15,2013-05-13 12:11:00,
2013-05-13 07:16:00,43.6,35.9,30.16,NE,51,0.0,3.0,74,0.00,,,0.00,258,Wunderground v.1.15,2013-05-13 12:16:00,
2013-05-13 07:21:00,44.1,36.0,30.16,NE,50,0.0,0.0,73,0.00,,,0.00,271,Wunderground v.1.15,2013-05-13 12:21:00,
2013-05-13 07:31:00,44.8,36.3,30.16,NE,43,0.0,0.0,72,0.00,,,0.00,299,Wunderground v.1.15,2013-05-13 12:31:00,
2013-05-13 07:36:00,45.2,36.7,30.17,NE,44,0.0,0.0,72,0.00,,,0.00,323,Wunderground v.1.15,2013-05-13 12:36:00,
2013-05-13 07:41:00,45.6,36.7,30.16,NE,46,0.0,0.0,71,0.00,,,0.00,341,Wunderground v.1.15,2013-05-13 12:41:00,
2013-05-13 07:46:00,45.8,36.2,30.17,ESE,112,0.0,1.0,69,0.00,,,0.00,341,Wunderground v.1.15,2013-05-13 12:46:00,
2013-05-13 07:56:00,46.5,36.5,30.17,SE,130,0.0,0.0,68,0.00,,,0.00,364,Wunderground v.1.15,2013-05-13 12:56:00,
2013-05-13 08:01:00,46.7,36.3,30.17,ENE,64,1.0,1.0,67,0.00,,,0.00,299,Wunderground v.1.15,2013-05-13 13:01:00,
2013-05-13 08:11:00,47.2,36.0,30.17,North,359,0.0,0.0,65,0.00,,,0.00,443,Wunderground v.1.15,2013-05-13 13:11:00,
2013-05-13 08:21:00,47.5,35.9,30.17,East,87,2.0,2.0,64,0.00,,,0.00,475,Wunderground v.1.15,2013-05-13 13:21:00,
2013-05-13 08:26:00,47.9,36.3,30.18,ESE,106,1.0,2.0,64,0.00,,,0.00,434,Wunderground v.1.15,2013-05-13 13:26:00,
2013-05-13 08:31:00,48.4,36.4,30.18,SE,131,1.0,1.0,63,0.00,,,0.00,506,Wunderground v.1.15,2013-05-13 13:31:00,
2013-05-13 08:41:00,48.6,35.7,30.18,SSE,151,0.0,0.0,61,0.00,,,0.00,538,Wunderground v.1.15,2013-05-13 13:41:00,
2013-05-13 08:46:00,48.9,36.0,30.18,SSE,150,0.0,0.0,61,0.00,,,0.00,554,Wunderground v.1.15,2013-05-13 13:46:00,
2013-05-13 08:51:00,49.3,36.4,30.18,SE,144,0.0,0.0,61,0.00,,,0.00,570,Wunderground v.1.15,2013-05-13 13:51:00,
2013-05-13 09:01:00,50.3,36.1,30.18,ESE,115,1.0,1.0,58,0.00,,,0.00,599,Wunderground v.1.15,2013-05-13 14:01:00,
2013-05-13 09:11:00,49.8,35.6,30.18,East,80,0.0,0.0,58,0.00,,,0.00,629,Wunderground v.1.15,2013-05-13 14:11:00,
2013-05-13 09:21:00,50.8,34.7,30.18,North,359,1.0,3.0,54,0.00,,,0.00,659,Wunderground v.1.15,2013-05-13 14:21:00,
2013-05-13 09:26:00,50.4,34.4,30.18,WSW,245,1.0,3.0,54,0.00,,,0.00,664,Wunderground v.1.15,2013-05-13 14:26:00,
2013-05-13 09:31:00,50.1,34.1,30.18,WSW,241,0.0,0.0,54,0.00,,,0.00,687,Wunderground v.1.15,2013-05-13 14:31:00,
2013-05-13 09:41:00,51.6,35.0,30.18,South,182,0.0,0.0,53,0.00,,,0.00,707,Wunderground v.1.15,2013-05-13 14:41:00,
2013-05-13 09:46:00,52.4,33.3,30.18,North,359,1.0,1.0,48,0.00,,,0.00,729,Wunderground v.1.15,2013-05-13 14:46:00,
2013-05-13 09:51:00,52.6,32.9,30.18,NW,311,2.0,2.0,47,0.00,,,0.00,735,Wunderground v.1.15,2013-05-13 14:51:00,
2013-05-13 09:56:00,52.5,32.8,30.18,WNW,294,2.0,2.0,47,0.00,,,0.00,749,Wunderground v.1.15,2013-05-13 14:56:00,
2013-05-13 10:06:00,53.1,29.4,30.18,North,359,1.0,9.0,40,0.00,,,0.00,779,Wunderground v.1.15,2013-05-13 15:06:00,
2013-05-13 10:16:00,53.9,30.1,30.18,NW,308,3.0,3.0,40,0.00,,,0.00,789,Wunderground v.1.15,2013-05-13 15:16:00,
2013-05-13 10:21:00,53.9,29.5,30.19,NW,315,4.0,4.0,39,0.00,,,0.00,821,Wunderground v.1.15,2013-05-13 15:21:00,
2013-05-13 10:26:00,53.4,30.3,30.18,NW,317,4.0,4.0,41,0.00,,,0.00,819,Wunderground v.1.15,2013-05-13 15:26:00,
2013-05-13 10:31:00,53.8,31.2,30.18,North,359,3.0,3.0,42,0.00,,,0.00,826,Wunderground v.1.15,2013-05-13 15:31:00,
2013-05-13 10:41:00,53.9,30.7,30.18,North,359,4.0,4.0,41,0.00,,,0.00,854,Wunderground v.1.15,2013-05-13 15:41:00,
2013-05-13 10:46:00,53.8,30.6,30.18,SW,231,3.0,5.0,41,0.00,,,0.00,865,Wunderground v.1.15,2013-05-13 15:46:00,
2013-05-13 10:51:00,54.2,31.0,30.18,West,266,3.0,7.0,41,0.00,,,0.00,872,Wunderground v.1.15,2013-05-13 15:51:00,
2013-05-13 11:01:00,55.0,27.8,30.18,North,359,2.0,9.0,35,0.00,,,0.00,912,Wunderground v.1.15,2013-05-13 16:01:00,
2013-05-13 11:06:00,54.9,28.4,30.18,North,359,3.0,9.0,36,0.00,,,0.00,904,Wunderground v.1.15,2013-05-13 16:06:00,
2013-05-13 11:16:00,55.3,28.8,30.17,WNW,302,3.0,5.0,36,0.00,,,0.00,912,Wunderground v.1.15,2013-05-13 16:16:00,
2013-05-13 11:26:00,55.9,27.9,30.17,NNW,339,4.0,7.0,34,0.00,,,0.00,919,Wunderground v.1.15,2013-05-13 16:26:00,
2013-05-13 11:31:00,55.6,26.9,30.17,North,359,5.0,5.0,33,0.00,,,0.00,935,Wunderground v.1.15,2013-05-13 16:31:00,
2013-05-13 11:41:00,56.2,25.9,30.17,WNW,301,4.0,12.0,31,0.00,,,0.00,942,Wunderground v.1.15,2013-05-13 16:41:00,
2013-05-13 11:46:00,56.2,26.7,30.17,WNW,287,6.0,12.0,32,0.00,,,0.00,949,Wunderground v.1.15,2013-05-13 16:46:00,
2013-05-13 11:56:00,56.7,26.4,30.17,NE,37,1.0,3.0,31,0.00,,,0.00,951,Wunderground v.1.15,2013-05-13 16:56:00,
2013-05-13 12:01:00,57.1,25.9,30.17,North,359,2.0,2.0,30,0.00,,,0.00,962,Wunderground v.1.15,2013-05-13 17:01:00,
2013-05-13 12:11:00,57.6,26.4,30.17,North,359,3.0,8.0,30,0.00,,,0.00,969,Wunderground v.1.15,2013-05-13 17:11:00,
2013-05-13 12:16:00,57.5,26.3,30.16,NNW,330,6.0,8.0,30,0.00,,,0.00,976,Wunderground v.1.15,2013-05-13 17:16:00,
2013-05-13 12:26:00,58.0,25.0,30.16,WNW,288,5.0,10.0,28,0.00,,,0.00,984,Wunderground v.1.15,2013-05-13 17:26:00,
2013-05-13 12:31:00,58.5,26.3,30.16,NW,305,5.0,10.0,29,0.00,,,0.00,988,Wunderground v.1.15,2013-05-13 17:31:00,
2013-05-13 12:36:00,58.4,24.5,30.16,North,359,5.0,10.0,27,0.00,,,0.00,984,Wunderground v.1.15,2013-05-13 17:36:00,
2013-05-13 12:46:00,58.5,23.7,30.16,NW,325,4.0,4.0,26,0.00,,,0.00,983,Wunderground v.1.15,2013-05-13 17:46:00,
2013-05-13 12:51:00,58.1,33.2,30.15,East,84,5.0,5.0,39,0.00,,,0.00,984,Wunderground v.1.15,2013-05-13 17:51:00,
2013-05-13 13:01:00,56.3,34.6,30.15,East,79,2.0,8.0,44,0.00,,,0.00,977,Wunderground v.1.15,2013-05-13 18:01:00,
2013-05-13 13:06:00,56.3,34.1,30.15,East,95,3.0,8.0,43,0.00,,,0.00,984,Wunderground v.1.15,2013-05-13 18:06:00,
2013-05-13 13:16:00,56.6,33.8,30.14,East,80,5.0,8.0,42,0.00,,,0.00,979,Wunderground v.1.15,2013-05-13 18:16:00,
2013-05-13 13:21:00,56.4,34.2,30.15,NE,55,6.0,6.0,43,0.00,,,0.00,974,Wunderground v.1.15,2013-05-13 18:21:00,
2013-05-13 13:31:00,55.2,33.6,30.14,East,88,5.0,6.0,44,0.00,,,0.00,965,Wunderground v.1.15,2013-05-13 18:31:00,
2013-05-13 13:36:00,55.6,33.4,30.14,ENE,62,4.0,6.0,43,0.00,,,0.00,965,Wunderground v.1.15,2013-05-13 18:36:00,
2013-05-13 13:41:00,55.3,33.7,30.14,ENE,69,4.0,4.0,44,0.00,,,0.00,965,Wunderground v.1.15,2013-05-13 18:41:00,
2013-05-13 13:51:00,54.5,33.0,30.14,ENE,68,6.0,7.0,44,0.00,,,0.00,954,Wunderground v.1.15,2013-05-13 18:51:00,
2013-05-13 13:56:00,55.3,34.3,30.14,SSE,149,5.0,7.0,45,0.00,,,0.00,949,Wunderground v.1.15,2013-05-13 18:56:00,
2013-05-13 14:01:00,55.9,34.3,30.13,ENE,77,3.0,9.0,44,0.00,,,0.00,942,Wunderground v.1.15,2013-05-13 19:01:00,
2013-05-13 14:11:00,55.9,33.7,30.13,NE,45,6.0,6.0,43,0.00,,,0.00,935,Wunderground v.1.15,2013-05-13 19:11:00,
2013-05-13 14:16:00,56.3,32.9,30.13,ESE,121,4.0,6.0,41,0.00,,,0.00,921,Wunderground v.1.15,2013-05-13 19:16:00,
2013-05-13 14:21:00,56.8,33.3,30.13,ESE,123,3.0,4.0,41,0.00,,,0.00,918,Wunderground v.1.15,2013-05-13 19:21:00,
2013-05-13 14:26:00,56.9,33.4,30.13,ENE,71,2.0,4.0,41,0.00,,,0.00,907,Wunderground v.1.15,2013-05-13 19:26:00,
2013-05-13 14:31:00,57.0,33.5,30.13,ESE,122,3.0,10.0,41,0.00,,,0.00,900,Wunderground v.1.15,2013-05-13 19:31:00,
2013-05-13 14:41:00,56.2,32.8,30.13,ESE,103,4.0,5.0,41,0.00,,,0.00,875,Wunderground v.1.15,2013-05-13 19:41:00,
2013-05-13 14:51:00,56.1,33.3,30.13,East,81,5.0,5.0,42,0.00,,,0.00,858,Wunderground v.1.15,2013-05-13 19:51:00,
2013-05-13 14:56:00,56.6,33.8,30.13,ESE,106,3.0,5.0,42,0.00,,,0.00,858,Wunderground v.1.15,2013-05-13 19:56:00,
2013-05-13 15:01:00,56.8,32.7,30.12,SE,125,2.0,8.0,40,0.00,,,0.00,844,Wunderground v.1.15,2013-05-13 20:01:00,
2013-05-13 15:11:00,56.5,32.4,30.12,SE,136,2.0,2.0,40,0.00,,,0.00,824,Wunderground v.1.15,2013-05-13 20:11:00,
2013-05-13 15:21:00,55.9,31.9,30.12,ESE,118,4.0,4.0,40,0.00,,,0.00,763,Wunderground v.1.15,2013-05-13 20:21:00,
2013-05-13 15:26:00,56.3,32.3,30.12,SSE,149,3.0,5.0,40,0.00,,,0.00,809,Wunderground v.1.15,2013-05-13 20:26:00,
2013-05-13 15:31:00,56.5,32.4,30.11,SSE,147,3.0,4.0,40,0.00,,,0.00,768,Wunderground v.1.15,2013-05-13 20:31:00,
2013-05-13 15:41:00,56.9,32.8,30.11,East,87,3.0,3.0,40,0.00,,,0.00,731,Wunderground v.1.15,2013-05-13 20:41:00,
2013-05-13 15:46:00,57.1,31.7,30.10,East,100,3.0,3.0,38,0.00,,,0.00,719,Wunderground v.1.15,2013-05-13 20:46:00,
2013-05-13 15:51:00,56.9,32.2,30.10,ESE,102,2.0,5.0,39,0.00,,,0.00,729,Wunderground v.1.15,2013-05-13 20:51:00,
2013-05-13 16:01:00,56.7,31.4,30.10,SE,125,4.0,9.0,38,0.00,,,0.00,686,Wunderground v.1.15,2013-05-13 21:01:00,
2013-05-13 16:06:00,56.9,31.5,30.10,ENE,77,5.0,9.0,38,0.00,,,0.00,628,Wunderground v.1.15,2013-05-13 21:06:00,
2013-05-13 16:16:00,56.8,31.4,30.09,East,91,2.0,3.0,38,0.00,,,0.00,594,Wunderground v.1.15,2013-05-13 21:16:00,
2013-05-13 16:26:00,56.4,30.4,30.09,East,83,3.0,3.0,37,0.00,,,0.00,591,Wunderground v.1.15,2013-05-13 21:26:00,
2013-05-13 16:31:00,56.6,30.6,30.09,ESE,102,3.0,3.0,37,0.00,,,0.00,577,Wunderground v.1.15,2013-05-13 21:31:00,
2013-05-13 16:41:00,56.2,30.2,30.09,SE,131,4.0,4.0,37,0.00,,,0.00,519,Wunderground v.1.15,2013-05-13 21:41:00,
2013-05-13 16:46:00,56.0,30.7,30.08,ESE,108,4.0,4.0,38,0.00,,,0.00,526,Wunderground v.1.15,2013-05-13 21:46:00,
2013-05-13 16:51:00,55.7,30.5,30.08,SE,127,3.0,3.0,38,0.00,,,0.00,287,Wunderground v.1.15,2013-05-13 21:51:00,
2013-05-13 17:01:00,56.0,31.4,30.08,ESE,102,1.0,3.0,39,0.00,,,0.00,294,Wunderground v.1.15,2013-05-13 22:01:00,
2013-05-13 17:06:00,55.8,30.5,30.08,ESE,121,1.0,3.0,38,0.00,,,0.00,329,Wunderground v.1.15,2013-05-13 22:06:00,
2013-05-13 17:16:00,55.8,30.5,30.08,SSE,156,2.0,7.0,38,0.00,,,0.00,334,Wunderground v.1.15,2013-05-13 22:16:00,
2013-05-13 17:26:00,55.3,30.1,30.08,SE,129,3.0,5.0,38,0.00,,,0.00,285,Wunderground v.1.15,2013-05-13 22:26:00,
2013-05-13 17:31:00,55.1,30.6,30.08,South,174,2.0,2.0,39,0.00,,,0.00,288,Wunderground v.1.15,2013-05-13 22:31:00,
2013-05-13 17:36:00,55.2,30.0,30.08,ESE,120,1.0,2.0,38,0.00,,,0.00,283,Wunderground v.1.15,2013-05-13 22:36:00,
2013-05-13 17:41:00,55.0,30.5,30.08,ESE,110,2.0,2.0,39,0.00,,,0.00,230,Wunderground v.1.15,2013-05-13 22:41:00,
2013-05-13 17:51:00,54.4,29.9,30.08,East,97,2.0,5.0,39,0.00,,,0.00,144,Wunderground v.1.15,2013-05-13 22:51:00,
2013-05-13 17:56:00,54.2,31.6,30.08,ENE,62,1.0,5.0,42,0.00,,,0.00,139,Wunderground v.1.15,2013-05-13 22:56:00,
2013-05-13 18:01:00,54.0,32.0,30.07,ESE,119,1.0,1.0,43,0.00,,,0.00,137,Wunderground v.1.15,2013-05-13 23:01:00,
2013-05-13 18:11:00,53.6,31.6,30.07,SE,128,1.0,1.0,43,0.00,,,0.00,116,Wunderground v.1.15,2013-05-13 23:11:00,
2013-05-13 18:16:00,53.4,31.4,30.07,North,359,1.0,1.0,43,0.00,,,0.00,111,Wunderground v.1.15,2013-05-13 23:16:00,
2013-05-13 18:21:00,53.2,31.3,30.07,East,99,1.0,1.0,43,0.00,,,0.00,104,Wunderground v.1.15,2013-05-13 23:21:00,
2013-05-13 18:31:00,52.9,30.4,30.07,SE,130,0.0,0.0,42,0.00,,,0.00,83,Wunderground v.1.15,2013-05-13 23:31:00,
2013-05-13 18:36:00,52.8,30.3,30.07,SE,124,1.0,1.0,42,0.00,,,0.00,76,Wunderground v.1.15,2013-05-13 23:36:00,
2013-05-13 18:41:00,52.6,30.7,30.07,East,101,1.0,1.0,43,0.00,,,0.00,63,Wunderground v.1.15,2013-05-13 23:41:00,
2013-05-13 18:51:00,52.4,30.5,30.07,ENE,73,0.0,0.0,43,0.00,,,0.00,51,Wunderground v.1.15,2013-05-13 23:51:00,
2013-05-13 18:56:00,52.3,31.0,30.07,ESE,112,1.0,1.0,44,0.00,,,0.00,42,Wunderground v.1.15,2013-05-13 23:56:00,
2013-05-13 19:01:00,52.1,30.8,30.07,ESE,112,1.0,1.0,44,0.00,,,0.00,35,Wunderground v.1.15,2013-05-14 00:01:00,
2013-05-13 19:11:00,51.7,30.5,30.07,ESE,122,1.0,1.0,44,0.00,,,0.00,26,Wunderground v.1.15,2013-05-14 00:11:00,
2013-05-13 19:21:00,51.5,30.8,30.06,ESE,123,1.0,3.0,45,0.00,,,0.00,21,Wunderground v.1.15,2013-05-14 00:21:00,
2013-05-13 19:26:00,51.4,30.7,30.06,ESE,117,1.0,3.0,45,0.00,,,0.00,21,Wunderground v.1.15,2013-05-14 00:26:00,
2013-05-13 19:36:00,51.4,31.3,30.06,East,94,0.0,1.0,46,0.00,,,0.00,7,Wunderground v.1.15,2013-05-14 00:36:00,
2013-05-13 19:41:00,51.5,30.8,30.06,ESE,112,0.0,0.0,45,0.00,,,0.00,5,Wunderground v.1.15,2013-05-14 00:41:00,
2013-05-13 19:51:00,51.4,31.3,30.05,ESE,104,0.0,0.0,46,0.00,,,0.00,0,Wunderground v.1.15,2013-05-14 00:51:00,
2013-05-13 20:01:00,51.2,31.1,30.05,SE,133,1.0,1.0,46,0.00,,,0.00,0,Wunderground v.1.15,2013-05-14 01:01:00,
2013-05-13 20:06:00,51.2,31.1,30.04,ESE,122,1.0,4.0,46,0.00,,,0.00,0,Wunderground v.1.15,2013-05-14 01:06:00,
2013-05-13 20:16:00,51.3,31.7,30.04,ESE,123,1.0,1.0,47,0.00,,,0.00,0,Wunderground v.1.15,2013-05-14 01:16:00,
2013-05-13 20:21:00,51.2,31.6,30.05,ESE,111,0.0,0.0,47,0.00,,,0.00,0,Wunderground v.1.15,2013-05-14 01:21:00,
2013-05-13 20:31:00,51.3,31.7,30.05,ESE,114,0.0,0.0,47,0.00,,,0.00,0,Wunderground v.1.15,2013-05-14 01:31:00,
2013-05-13 20:36:00,51.3,31.2,30.05,ESE,120,0.0,0.0,46,0.00,,,0.00,0,Wunderground v.1.15,2013-05-14 01:36:00,
2013-05-13 20:41:00,51.3,31.2,30.04,SE,130,0.0,0.0,46,0.00,,,0.00,0,Wunderground v.1.15,2013-05-14 01:41:00,
2013-05-13 20:46:00,51.4,31.3,30.04,SE,127,0.0,0.0,46,0.00,,,0.00,0,Wunderground v.1.15,2013-05-14 01:46:00,
2013-05-13 20:56:00,51.6,31.5,30.05,ESE,112,0.0,0.0,46,0.00,,,0.00,0,Wunderground v.1.15,2013-05-14 01:56:00,
2013-05-13 21:01:00,51.5,31.4,30.04,ESE,102,0.0,0.0,46,0.00,,,0.00,0,Wunderground v.1.15,2013-05-14 02:01:00,
2013-05-13 21:11:00,51.5,31.4,30.05,East,85,0.0,0.0,46,0.00,,,0.00,0,Wunderground v.1.15,2013-05-14 02:11:00,
2013-05-13 21:21:00,51.5,31.4,30.05,East,99,0.0,0.0,46,0.00,,,0.00,0,Wunderground v.1.15,2013-05-14 02:21:00,
2013-05-13 21:26:00,51.4,31.3,30.06,ENE,78,0.0,0.0,46,0.00,,,0.00,0,Wunderground v.1.15,2013-05-14 02:26:00,
2013-05-13 21:36:00,51.4,31.8,30.06,ENE,66,0.0,0.0,47,0.00,,,0.00,0,Wunderground v.1.15,2013-05-14 02:36:00,
2013-05-13 21:41:00,51.4,31.8,30.06,East,84,0.0,0.0,47,0.00,,,0.00,0,Wunderground v.1.15,2013-05-14 02:41:00,
2013-05-13 21:51:00,51.4,31.8,30.06,ENE,74,0.0,0.0,47,0.00,,,0.00,0,Wunderground v.1.15,2013-05-14 02:51:00,
2013-05-13 21:56:00,51.4,31.8,30.05,ENE,77,0.0,0.0,47,0.00,,,0.00,0,Wunderground v.1.15,2013-05-14 02:56:00,
2013-05-13 22:01:00,51.4,31.8,30.05,ESE,119,0.0,0.0,47,0.00,,,0.00,0,Wunderground v.1.15,2013-05-14 03:01:00,
2013-05-13 22:11:00,51.5,31.9,30.05,ESE,116,0.0,0.0,47,0.00,,,0.00,0,Wunderground v.1.15,2013-05-14 03:11:00,
2013-05-13 22:21:00,51.6,32.0,30.04,ESE,120,0.0,0.0,47,0.00,,,0.00,0,Wunderground v.1.15,2013-05-14 03:21:00,
2013-05-13 22:26:00,51.7,31.6,30.05,ESE,116,0.0,0.0,46,0.00,,,0.00,0,Wunderground v.1.15,2013-05-14 03:26:00,
2013-05-13 22:31:00,51.8,31.7,30.04,East,96,0.0,0.0,46,0.00,,,0.00,0,Wunderground v.1.15,2013-05-14 03:31:00,
2013-05-13 22:36:00,51.8,31.7,30.04,East,96,0.0,0.0,46,0.00,,,0.00,0,Wunderground v.1.15,2013-05-14 03:36:00,
2013-05-13 22:46:00,51.9,31.7,30.04,ESE,102,0.0,0.0,46,0.00,,,0.00,0,Wunderground v.1.15,2013-05-14 03:46:00,
2013-05-13 22:51:00,52.0,31.8,30.04,East,99,0.0,0.0,46,0.00,,,0.00,0,Wunderground v.1.15,2013-05-14 03:51:00,
2013-05-13 23:01:00,52.1,31.9,30.03,East,97,0.0,0.0,46,0.00,,,0.00,0,Wunderground v.1.15,2013-05-14 04:01:00,
2013-05-13 23:06:00,52.2,32.6,30.03,East,99,0.0,0.0,47,0.00,,,0.00,0,Wunderground v.1.15,2013-05-14 04:06:00,
2013-05-13 23:11:00,52.2,32.6,30.02,East,101,0.0,0.0,47,0.00,,,0.00,0,Wunderground v.1.15,2013-05-14 04:11:00,
2013-05-13 23:16:00,52.3,32.6,30.02,East,100,0.0,0.0,47,0.00,,,0.00,0,Wunderground v.1.15,2013-05-14 04:16:00,
2013-05-13 23:21:00,52.4,32.7,30.02,ESE,107,0.0,0.0,47,0.00,,,0.00,0,Wunderground v.1.15,2013-05-14 04:21:00,
2013-05-13 23:31:00,52.6,33.5,30.01,ESE,115,0.0,0.0,48,0.00,,,0.00,0,Wunderground v.1.15,2013-05-14 04:31:00,
2013-05-13 23:36:00,52.7,34.1,30.01,SE,127,0.0,0.0,49,0.00,,,0.00,0,Wunderground v.1.15,2013-05-14 04:36:00,
2013-05-13 23:41:00,52.8,34.7,30.01,SE,135,0.0,0.0,50,0.00,,,0.00,0,Wunderground v.1.15,2013-05-14 04:41:00,
2013-05-13 23:51:00,53.0,35.8,30.00,North,359,0.0,3.0,52,0.00,,,0.00,0,Wunderground v.1.15,2013-05-14 04:51:00,
2013-05-13 23:56:00,53.3,37.1,30.00,South,171,1.0,3.0,54,0.00,,,0.00,0,Wunderground v.1.15,2013-05-14 04:56:00,